[[{"header":{"parameterUnit":"m.s-1","parameterCategory":1,"la1":30.2991,"la2":30.254,"lo1":-89.0895,"lo2":-89.0444,"dy":0.0017,"dx":0.0017,"nx":28,"ny":28,"refTime":"2025-12-27T09:00:00:Z","depth":0,"parameterNumber":2,"parameterNumberName":"U-component_of_WINDS"},"data":[0,0,0,0,0,0,0,0,0,0,0,0,0,0,0,0,0,0,0,0,0,0,0,0,0,0,0,0,0,0,0,0,0,0,0,0,0,0,0,0,0,0,0,0,0,0,0,0,0,0,0,0,0,0,0,0,0,0,1.9788,1.9788,0,1.9811,1.9811,1.9811,1.9771,1.977,1.9769,1.9768,1.9791,1.9793,1.9795,0,0,0,0,0,0,0,0,0,0,0,0,0,1.9711,1.9713,1.9788,1.9788,1.9788,1.9811,1.9811,1.9811,1.9772,1.977,1.9768,1.9767,1.9791,1.9793,1.9795,0,0,0,0,0,0,0,0,0,0,0,0,0,1.974,1.9713,1.9788,1.9771,1.977,1.981,1.9811,1.9811,1.9772,1.977,1.9768,1.9766,1.979,1.9793,1.9796,1.9853,0,0,1.9804,1.9805,0,0,0,0,0,0,0,0,1.9739,1.9743,1.9774,1.9773,1.9771,1.9786,1.9792,1.9825,1.9773,1.9771,1.9767,1.9765,1.9791,1.9794,1.9803,1.9854,1.9855,1.9804,1.9806,1.9807,1.9808,0,0,0,0,0,0,0,1.9737,1.9742,1.9797,1.9774,1.9773,1.9763,1.9765,1.9798,1.9792,1.9771,1.9768,1.9772,1.979,1.98,1.9803,1.9856,1.9804,1.9807,1.9809,1.981,1.9956,1.9958,0,0,0,0,0,0,1.9737,1.974,1.9796,1.9798,1.975,1.9766,1.9768,1.9783,1.9792,1.9791,1.9773,1.977,1.9796,1.98,1.9804,1.9872,1.9807,1.981,1.9812,1.9954,1.9957,1.9959,0,0,0,0,0,0,1.9735,1.9742,1.9795,1.9768,1.9774,1.977,1.9787,1.9785,1.9795,1.9793,1.9792,1.9784,1.9795,1.98,1.9841,1.9873,1.9811,1.9814,1.9952,1.9955,1.9958,2.001,0,0,0,0,0,0,1.9733,1.9742,1.9763,1.9769,1.9776,1.9833,1.9789,1.9787,1.9799,1.9795,1.9803,1.9803,1.9793,1.9837,1.9844,1.9875,1.9816,1.9949,1.9953,1.9957,2.0005,2.0015,2.0022,0,0,0,0,0,1.973,1.9777,1.9765,1.9772,1.9803,1.9834,1.9838,1.9827,1.9802,1.9824,1.9823,1.9803,1.9868,1.9842,1.9849,1.9882,1.9947,1.9952,1.9957,2.0002,2.0013,2.0022,0,0,0,0,0,0,1.9775,1.9777,1.9764,1.9813,1.9824,1.9828,1.9855,1.9839,1.9856,1.9852,1.9836,1.9838,1.9883,1.9886,1.9858,1.9938,1.9903,1.991,1.9935,1.9945,1.9954,1.9953,1.9818,0,0,0,0,0,1.9791,1.9816,1.9817,1.986,1.9866,1.986,1.9873,1.9863,1.9874,1.9878,1.988,1.9891,1.9914,1.993,1.9951,2.0005,2.0007,2.0031,2.004,2.0047,2.0053,2.0083,2.0094,1.9976,1.9975,1.9975,0,0,1.9823,1.9828,1.9845,1.987,1.9877,1.9904,1.9864,1.9894,1.9914,1.9882,1.9922,1.9924,1.9936,1.9984,2.0006,1.9988,2.0086,2.0053,2.0059,2.0061,2.0089,2.01,2.011,1.9979,1.9978,1.9978,0,0,1.9897,1.9902,1.994,1.9948,1.9959,1.9954,1.9963,1.997,1.997,2.0009,1.9986,2.001,2.005,2.0059,2.0069,2.0146,2.0128,2.0153,2.0198,2.0227,2.0237,2.0245,2.0274,2.0284,2.0159,2.0159,2.0159,0,1.9936,1.9976,1.9961,1.9993,2.0005,1.9978,2.0016,2.0024,2.0042,2.0051,2.0031,2.008,2.0086,2.0137,2.0156,2.0164,2.0175,2.0153,2.0236,2.0245,2.0252,2.0279,2.029,2.0162,2.0162,2.0162,2.0161,0,2.0024,2.0052,2.0081,2.0099,2.0114,2.0149,2.014,2.0157,2.0145,2.0143,2.0184,2.0189,2.0212,2.0223,2.0211,2.0272,2.0261,2.0239,2.0204,2.0267,2.0292,2.0302,2.0167,2.0166,2.0165,2.0164,0,0,2.0127,2.0137,2.0148,2.0156,2.0166,2.0187,2.0221,2.0242,2.0258,2.0271,2.0299,2.0333,2.0313,2.0324,2.0314,2.034,2.0402,2.0314,2.0314,2.0331,2.047,2.0487,2.0499,2.0389,2.0391,2.0392,2.0469,0,2.0201,2.026,2.0248,2.0305,2.0331,2.0305,2.0335,2.0344,2.0343,2.0365,2.0363,2.0388,2.0359,2.0366,2.0389,2.0389,2.0429,2.0383,2.0416,2.0418,2.0415,2.0512,2.0531,2.0603,2.0479,2.048,2.0482,0,2.0295,2.0312,2.0372,2.0379,2.0389,2.0416,2.0435,2.0456,2.0467,2.0464,2.0477,2.0462,2.0495,2.0459,2.0505,2.0474,2.0487,2.0489,2.0491,2.0495,2.0454,2.052,2.0626,2.0637,2.0497,2.0496,2.0494,0,2.0366,2.0403,2.0445,2.0452,2.0461,2.048,2.0485,2.0493,2.0507,2.0523,2.0532,2.0553,2.0564,2.058,2.0571,2.0545,2.062,2.0582,2.0619,2.0619,2.0637,2.0636,2.0747,2.0643,2.0643,2.0643,2.0642,0,2.0451,2.0489,2.0477,2.0502,2.0544,2.053,2.0572,2.0573,2.0581,2.0606,2.0585,2.0609,2.0595,2.0618,2.0611,2.0651,2.0656,2.0655,2.0653,2.0658,2.0658,2.0667,2.0662,2.0645,2.0645,2.0644,2.0644,0,2.0537,2.053,2.0574,2.0578,2.058,2.0611,2.0615,2.0639,2.0636,2.0668,2.0675,2.067,2.0696,2.0688,2.0716,2.0712,2.0763,2.0754,2.076,2.0758,2.0796,2.0793,2.0918,2.0934,2.0818,2.0819,2.082,0,2.0592,2.0621,2.0629,2.0644,2.065,2.0676,2.069,2.0677,2.0692,2.0707,2.0729,2.0753,2.0772,2.0815,2.0814,2.0836,2.0828,2.087,2.0831,2.0835,2.083,2.0829,2.0832,2.0878,2.088,2.0881,2.0882,0,2.0691,2.0686,2.0707,2.0728,2.0746,2.0761,2.0774,2.0788,2.0776,2.0795,2.0821,2.0836,2.0865,2.089,2.0909,2.0914,2.0896,2.0894,2.0904,2.0909,2.0912,2.0912,2.0782,2.0891,2.089,2.089,2.0889,2.0889,2.0764,2.0789,2.0798,2.0823,2.0832,2.0845,2.0868,2.0867,2.0889,2.0912,2.0903,2.0934,2.0944,2.0968,2.0976,2.1,2.0984,2.0998,2.1001,2.1005,2.1011,2.0907,2.1003,2.1003,2.1002,2.1002,2.1002,0,2.0863,2.0868,2.089,2.091,2.0929,2.0911,2.0925,2.0942,2.097,2.098,2.1,2.1031,2.1054,2.1055,2.1078,2.1097,2.1089,2.1103,2.1102,2.1104,2.1023,2.1013,2.1109,2.1109,2.1109,2.1109,2.1109,2.1109,2.0916,2.0957,2.0954,2.0999,2.1004,2.1034,2.1044,2.1056,2.1065,2.11,2.112,2.112,2.1127,2.115,2.1171,2.1171,2.1181,2.1198,2.1195,2.112,2.1109,2.1099,2.1089,2.12,2.12,2.1273,2.1274,2.1274]},{"header":{"parameterUnit":"m.s-1","parameterCategory":1,"la1":30.2991,"la2":30.254,"lo1":-89.0895,"lo2":-89.0444,"dy":0.0017,"dx":0.0017,"nx":28,"ny":28,"refTime":"2025-12-27T09:00:00:Z","depth":0,"parameterNumber":3,"parameterNumberName":"V-component_of_WINDS"},"data":[0,0,0,0,0,0,0,0,0,0,0,0,0,0,0,0,0,0,0,0,0,0,0,0,0,0,0,0,0,0,0,0,0,0,0,0,0,0,0,0,0,0,0,0,0,0,0,0,0,0,0,0,0,0,0,0,0,0,3.5058,3.506,0,3.5295,3.5298,3.53,3.537,3.5368,3.5367,3.5366,3.5611,3.5618,3.5626,0,0,0,0,0,0,0,0,0,0,0,0,0,3.4665,3.4672,3.5057,3.506,3.5063,3.5295,3.5298,3.5301,3.537,3.5368,3.5367,3.5365,3.5608,3.5618,3.5627,0,0,0,0,0,0,0,0,0,0,0,0,0,3.4862,3.4674,3.5057,3.5125,3.5134,3.5294,3.5298,3.5302,3.537,3.5368,3.5366,3.5364,3.5605,3.5617,3.5628,3.5738,0,0,3.5663,3.5668,0,0,0,0,0,0,0,0,3.4851,3.4877,3.5112,3.5121,3.5131,3.5301,3.525,3.5448,3.5371,3.528,3.5366,3.5364,3.5509,3.5529,3.5578,3.5749,3.576,3.5664,3.5671,3.5676,3.568,0,0,0,0,0,0,0,3.4837,3.4867,3.5151,3.5116,3.5127,3.5145,3.5171,3.5288,3.5403,3.5288,3.5294,3.5321,3.5514,3.5566,3.5584,3.5763,3.5664,3.5674,3.5682,3.5686,3.6039,3.6041,0,0,0,0,0,0,3.4812,3.4855,3.5144,3.5159,3.4983,3.5154,3.5183,3.5248,3.5402,3.5423,3.5322,3.5323,3.5547,3.557,3.5593,3.5733,3.5676,3.5687,3.5694,3.6036,3.6039,3.6042,0,0,0,0,0,0,3.4803,3.4837,3.5134,3.5009,3.5048,3.5162,3.5235,3.5254,3.5306,3.5427,3.5448,3.5354,3.5547,3.5576,3.5701,3.5743,3.5692,3.5703,3.6034,3.6037,3.6041,3.6014,0,0,0,0,0,0,3.4792,3.4833,3.4876,3.5009,3.5054,3.5238,3.5238,3.526,3.5326,3.5329,3.5463,3.5483,3.5548,3.5684,3.5713,3.5758,3.5712,3.603,3.6035,3.604,3.6011,3.6016,3.602,0,0,0,0,0,3.4777,3.4859,3.4877,3.4912,3.5109,3.5241,3.5267,3.5338,3.5328,3.5373,3.5451,3.5479,3.5732,3.5696,3.5729,3.5778,3.6028,3.6034,3.6039,3.6009,3.6015,3.6019,0,0,0,0,0,0,3.4728,3.4877,3.49,3.5027,3.512,3.5252,3.531,3.5341,3.544,3.544,3.5525,3.5554,3.5674,3.5738,3.5695,3.5893,3.5881,3.5894,3.5847,3.5854,3.5857,3.5841,3.5722,0,0,0,0,0,3.4731,3.4825,3.4951,3.505,3.5096,3.5194,3.5254,3.5301,3.5402,3.5442,3.553,3.5627,3.5729,3.5794,3.5895,3.602,3.6051,3.607,3.6074,3.6077,3.6087,3.6161,3.6171,3.606,3.606,3.606,0,0,3.474,3.4834,3.4888,3.5043,3.5121,3.5217,3.5228,3.5328,3.5401,3.5458,3.5582,3.5649,3.5763,3.5889,3.5949,3.5947,3.6125,3.6084,3.6085,3.6095,3.6167,3.6178,3.6187,3.6064,3.6063,3.6062,0,0,3.4806,3.4885,3.4978,3.5056,3.5174,3.5239,3.5261,3.5388,3.5435,3.556,3.5606,3.5693,3.5866,3.5947,3.601,3.6106,3.6137,3.6136,3.6159,3.6229,3.6238,3.6246,3.6283,3.6295,3.6145,3.6145,3.6145,0,3.4803,3.4949,3.5022,3.5121,3.5189,3.5244,3.5339,3.5411,3.5556,3.5602,3.5596,3.5816,3.5896,3.6043,3.6066,3.6115,3.6144,3.6122,3.623,3.624,3.6248,3.6284,3.6298,3.6145,3.6145,3.6145,3.6145,0,3.494,3.504,3.5101,3.524,3.5314,3.541,3.5499,3.5565,3.5605,3.5671,3.5798,3.5897,3.6019,3.6057,3.6097,3.621,3.6205,3.6213,3.6204,3.6257,3.6293,3.6307,3.6144,3.6144,3.6144,3.6144,0,0,3.4984,3.516,3.5182,3.5246,3.538,3.546,3.5559,3.5678,3.5734,3.5831,3.5918,3.6063,3.6073,3.6144,3.6194,3.6255,3.6328,3.6257,3.6261,3.6269,3.6461,3.6456,3.647,3.6348,3.6351,3.6353,3.6452,0,3.5069,3.5248,3.5316,3.5463,3.5558,3.5612,3.5698,3.579,3.5854,3.5944,3.6015,3.6118,3.6121,3.6165,3.6227,3.6306,3.6368,3.6299,3.6432,3.6435,3.6404,3.6488,3.6483,3.6572,3.6466,3.6469,3.6471,0,3.5192,3.5291,3.5448,3.5571,3.5613,3.569,3.5805,3.589,3.5996,3.6038,3.6118,3.6164,3.6271,3.6252,3.6402,3.6354,3.6412,3.6458,3.6463,3.6481,3.6458,3.6511,3.6602,3.6616,3.6493,3.6491,3.6489,0,3.5211,3.5383,3.55,3.5553,3.5699,3.5752,3.5816,3.5919,3.5987,3.6087,3.6132,3.6243,3.6305,3.6391,3.6466,3.6444,3.661,3.6596,3.6649,3.6648,3.6684,3.6681,3.6789,3.6716,3.6716,3.6716,3.6715,0,3.5301,3.5395,3.5511,3.5583,3.569,3.5768,3.5872,3.5939,3.6031,3.6118,3.617,3.625,3.6343,3.6435,3.6494,3.6611,3.6638,3.6676,3.6692,3.6674,3.6669,3.6715,3.6712,3.6719,3.6719,3.6718,3.6717,0,3.5342,3.5423,3.5554,3.5681,3.5715,3.5789,3.5899,3.5971,3.6036,3.6146,3.6176,3.6279,3.6391,3.6473,3.6618,3.6658,3.6783,3.6797,3.6747,3.6756,3.6805,3.68,3.6948,3.6973,3.688,3.6881,3.6882,0,3.5395,3.5469,3.5604,3.5666,3.5729,3.5827,3.5896,3.5975,3.6045,3.6171,3.6229,3.6344,3.6441,3.6617,3.6706,3.6817,3.6836,3.688,3.6853,3.6833,3.684,3.6836,3.6845,3.6884,3.6885,3.6885,3.6886,0,3.5482,3.5518,3.5615,3.5727,3.5808,3.59,3.5992,3.604,3.6135,3.6211,3.6326,3.6401,3.6548,3.6663,3.6783,3.6849,3.6885,3.6893,3.6912,3.6896,3.6865,3.6885,3.6761,3.689,3.689,3.6889,3.6889,3.6889,3.5533,3.5602,3.5708,3.5815,3.5893,3.5978,3.6053,3.6127,3.6224,3.6351,3.6391,3.651,3.6615,3.678,3.6847,3.6943,3.6942,3.6968,3.6976,3.6982,3.6982,3.6847,3.6964,3.6964,3.6964,3.6964,3.6964,0,3.5625,3.5696,3.5793,3.5921,3.6005,3.6029,3.6133,3.6202,3.6307,3.6401,3.6495,3.6627,3.6739,3.6835,3.6951,3.7009,3.7028,3.7037,3.7035,3.7051,3.6974,3.6948,3.702,3.702,3.702,3.702,3.702,3.702,3.5683,3.5801,3.585,3.6008,3.6078,3.6195,3.6253,3.6332,3.6408,3.6554,3.6647,3.6708,3.6805,3.6928,3.7032,3.7057,3.7099,3.7104,3.7134,3.7062,3.7056,3.7049,3.7025,3.7112,3.7112,3.7203,3.7204,3.7205]}]]